Location: Anmer
(52.8333°N, 0.5833°E)
Time: 16:32:22
(UTC+00:00)

Cosmos 2219 Rocket - Pass Details

Date: 15 May 2026
Orbit: 825 x 846 km, 71.0° (Epoch: 10 June)

Event Time Altitude Azimuth Distance (km) Brightness Sun altitude
Rises 21:56:18 0° 327° (NNW) 3,405 7.3 -13.7°
Reaches altitude 10° 21:58:45 10° 325° (NW) 2,470 6.1 -13.9°
Maximum altitude 22:04:22 67° 244° (WSW) 916 2.4 -14.3°
Enters shadow 22:08:12 21° 167° (SSE) 1,815 3.3 -14.6°
